Date String (YYYY-MM-DD hh:mm:ss) UTC,Instrument flags,Ambient pressure (hPa),Sample flow (lpm),Bypass flow (lpm),Sample temperature (°C),Ambient temperature (°C),ASC tube jacket temperature (°C),LED temperature (°C),Box temperature (°C),Sample RH (%),Span deviation,Mass concentration (μg/m³),Mass concentration (μg/m³),Mass concentration (μg/m³)
DateTimeUTC,F1_M11,P_M11,Q1_M11,Q2_M11,T1_M11,T2_M11,T3_M11,T4_M11,T5_M11,U1_M11,ZSPAN_M11,X0_M11,X2_M11,X1_M11
2021-10-21 00:00:00,,0829.9,5.01,0.00,30.2,27.0,00.0,39.4,31.5,11.5,0000.0,0014.05,0004.81,0003.98
2021-10-21 00:01:00,,0829.9,4.99,0.00,30.0,25.7,00.0,39.3,31.2,11.5,0000.0,0014.59,0004.80,0003.99
2021-10-21 00:02:00,,0829.9,5.00,0.00,29.9,25.8,00.0,39.2,31.1,11.6,0000.0,0014.81,0004.80,0003.99
2021-10-21 00:03:00,,0829.9,5.00,0.00,29.8,26.3,00.0,39.1,31.2,11.6,0000.0,0014.90,0004.81,0003.99
2021-10-21 00:04:00,,0829.9,5.01,0.00,29.8,26.8,00.0,39.1,31.2,11.6,0000.0,0015.69,0004.86,0003.98
2021-10-21 00:05:00,,0829.9,4.99,0.00,29.5,26.6,00.0,39.0,30.8,11.8,0000.0,0015.49,0004.92,0003.98
2021-10-21 00:06:00,,0829.8,5.00,0.00,29.1,26.3,00.0,38.9,30.2,12.0,0000.0,0015.18,0004.90,0003.96
2021-10-21 00:07:00,,0829.8,5.00,0.00,28.8,25.9,00.0,38.7,29.7,12.2,0000.0,0014.65,0004.93,0003.96
2021-10-21 00:08:00,,0829.8,5.00,0.00,28.5,25.7,00.0,38.6,29.4,12.4,0000.0,0015.26,0004.97,0003.96
2021-10-21 00:09:00,,0829.8,4.99,0.00,28.3,25.4,00.0,38.4,29.2,12.6,0000.0,0014.76,0005.03,0003.98
2021-10-21 00:10:00,,0829.8,5.01,0.00,28.0,25.1,00.0,38.3,28.9,12.8,0000.0,0014.20,0005.08,0003.99
2021-10-21 00:11:00,,0829.8,5.01,0.00,27.8,25.0,00.0,38.1,28.7,12.9,0000.0,0015.04,0005.11,0003.98
2021-10-21 00:12:00,,0829.8,4.99,0.00,27.5,24.9,00.0,37.9,28.5,13.0,0000.0,0014.90,0005.11,0003.98
2021-10-21 00:13:00,,0829.8,5.00,0.00,27.3,24.7,00.0,37.7,28.3,13.2,0000.0,0014.81,0005.11,0003.97
2021-10-21 00:14:00,,0829.8,5.00,0.00,27.1,24.6,00.0,37.6,28.1,13.3,0000.0,0015.00,0005.09,0003.95
2021-10-21 00:15:00,,0829.8,5.00,0.00,26.9,24.5,00.0,37.4,28.0,13.4,0000.0,0013.95,0005.02,0003.93
2021-10-21 00:16:00,,0829.8,5.00,0.00,26.8,24.3,00.0,37.2,27.9,13.5,0000.0,0014.23,0004.96,0003.91
2021-10-21 00:17:00,,0829.8,5.00,0.00,26.6,24.2,00.0,37.1,27.7,13.6,0000.0,0014.43,0004.95,0003.89
2021-10-21 00:18:00,,0829.9,5.00,0.00,26.5,24.1,00.0,36.9,27.6,13.7,0000.0,0014.21,0004.94,0003.87
2021-10-21 00:19:00,,0829.9,5.00,0.00,26.3,24.0,00.0,36.8,27.4,13.9,0000.0,0013.84,0004.90,0003.85
2021-10-21 00:20:00,,0829.9,5.00,0.00,26.1,23.8,00.0,36.6,27.2,14.0,0000.0,0014.26,0004.91,0003.82
2021-10-21 00:21:00,,0829.9,5.00,0.00,25.9,23.6,00.0,36.4,26.9,14.2,0000.0,0015.32,0004.89,0003.80
2021-10-21 00:22:00,,0829.9,4.99,0.00,25.6,23.4,00.0,36.2,26.6,14.4,0000.0,0016.03,0004.86,0003.80
2021-10-21 00:23:00,,0829.9,5.00,0.00,25.5,23.2,00.0,36.1,26.5,14.5,0000.0,0015.97,0004.87,0003.80
2021-10-21 00:24:00,,0829.9,5.01,0.00,25.4,23.2,00.0,35.9,26.4,14.6,0000.0,0016.34,0004.83,0003.80
2021-10-21 00:25:00,,0829.9,4.99,0.00,25.2,23.1,00.0,35.7,26.3,14.7,0000.0,0015.17,0004.84,0003.80
2021-10-21 00:26:00,,0829.9,5.01,0.00,25.1,23.1,00.0,35.6,26.2,14.8,0000.0,0016.26,0004.90,0003.81
2021-10-21 00:27:00,,0829.9,5.00,0.00,24.9,22.8,00.0,35.4,26.0,14.9,0000.0,0016.04,0004.91,0003.83
2021-10-21 00:28:00,,0829.9,5.00,0.00,24.8,22.7,00.0,35.3,25.8,15.1,0000.0,0015.88,0004.90,0003.84
2021-10-21 00:29:00,,0829.8,5.01,0.00,24.7,22.6,00.0,35.1,25.7,15.2,0000.0,0016.53,0004.84,0003.84
2021-10-21 00:30:00,,0829.8,4.99,0.00,24.6,22.6,00.0,35.0,25.7,15.0,0000.0,0017.37,0004.83,0003.84
2021-10-21 00:31:00,,0829.8,5.01,0.00,24.5,22.6,00.0,34.9,25.6,15.1,0000.0,0016.89,0004.79,0003.84
2021-10-21 00:32:00,,0829.9,4.99,0.00,24.4,22.4,00.0,34.7,25.5,15.2,0000.0,0015.77,0004.74,0003.83
2021-10-21 00:33:00,,0829.9,5.01,0.00,24.2,22.3,00.0,34.6,25.4,15.3,0000.0,0015.03,0004.77,0003.82
2021-10-21 00:34:00,,0829.9,5.00,0.00,24.1,22.1,00.0,34.5,25.2,15.3,0000.0,0014.56,0004.76,0003.82
2021-10-21 00:35:00,,0829.8,5.01,0.00,23.9,21.9,00.0,34.3,25.0,15.5,0000.0,0014.60,0004.81,0003.82
2021-10-21 00:36:00,,0829.9,4.99,0.00,23.8,21.7,00.0,34.2,24.9,15.5,0000.0,0015.03,0004.77,0003.81
2021-10-21 00:37:00,,0829.9,4.99,0.00,23.6,21.6,00.0,34.0,24.8,15.5,0000.0,0015.84,0004.71,0003.80
2021-10-21 00:38:00,,0830.0,5.00,0.00,23.5,21.5,00.0,33.9,24.7,15.7,0000.0,0015.92,0004.68,0003.79
2021-10-21 00:39:00,,0830.1,5.00,0.00,23.5,21.6,00.0,33.8,24.8,15.7,0000.0,0017.31,0004.70,0003.79
2021-10-21 00:40:00,,0830.1,5.00,0.00,23.6,21.9,00.0,33.7,25.0,15.7,0000.0,0017.05,0004.71,0003.79
2021-10-21 00:41:00,,0830.1,5.01,0.00,23.7,22.2,00.0,33.6,25.2,15.5,0000.0,0015.91,0004.68,0003.79
2021-10-21 00:42:00,,0830.1,5.00,0.00,23.8,22.6,00.0,33.6,25.4,15.4,0000.0,0016.31,0004.70,0003.80
2021-10-21 00:43:00,,0830.1,5.00,0.00,23.9,22.9,00.0,33.5,25.6,15.4,0000.0,0018.52,0004.73,0003.81
2021-10-21 00:44:00,,0830.1,4.99,0.00,24.0,23.2,00.0,33.5,25.8,15.3,0000.0,0019.06,0004.70,0003.80
2021-10-21 00:45:00,,0830.2,5.00,0.00,24.1,23.4,00.0,33.5,26.0,15.2,0000.0,0018.90,0004.69,0003.80
2021-10-21 00:46:00,,0830.2,5.01,0.00,24.2,23.7,00.0,33.5,26.1,15.1,0000.0,0019.00,0004.66,0003.80
2021-10-21 00:47:00,,0830.2,5.01,0.00,24.3,23.9,00.0,33.5,26.3,14.9,0000.0,0018.82,0004.68,0003.80
2021-10-21 00:48:00,,0830.2,4.98,0.00,24.4,24.1,00.0,33.6,26.4,14.8,0000.0,0017.78,0004.69,0003.80
2021-10-21 00:49:00,,0830.1,5.01,0.00,24.5,24.2,00.0,33.6,26.5,14.7,0000.0,0017.89,0004.67,0003.80
2021-10-21 00:50:00,,0830.2,4.99,0.00,24.6,24.3,00.0,33.6,26.6,14.6,0000.0,0016.74,0004.70,0003.82
2021-10-21 00:51:00,,0830.2,5.00,0.00,24.7,24.4,00.0,33.6,26.6,14.5,0000.0,0016.63,0004.73,0003.83
2021-10-21 00:52:00,,0830.2,5.00,0.00,24.8,24.5,00.0,33.7,26.7,14.5,0000.0,0017.50,0004.76,0003.83
2021-10-21 00:53:00,,0830.2,5.01,0.00,24.8,24.6,00.0,33.7,26.8,14.4,0000.0,0017.59,0004.76,0003.83
2021-10-21 00:54:00,,0830.2,4.99,0.00,24.9,24.7,00.0,33.8,26.9,14.4,0000.0,0017.03,0004.75,0003.84
2021-10-21 00:55:00,,0830.2,5.00,0.00,25.0,24.8,00.0,33.8,27.0,14.4,0000.0,0015.92,0004.75,0003.86
2021-10-21 00:56:00,,0830.2,5.00,0.00,25.1,24.8,00.0,33.9,27.1,14.3,0000.0,0016.00,0004.76,0003.87
2021-10-21 00:57:00,,0830.2,5.00,0.00,25.1,24.9,00.0,33.9,27.1,14.3,0000.0,0016.42,0004.80,0003.88
2021-10-21 00:58:00,,0830.3,5.00,0.00,25.2,25.0,00.0,33.9,27.2,14.2,0000.0,0016.53,0004.81,0003.89
2021-10-21 00:59:00,,0830.3,4.99,0.00,25.3,25.0,00.0,34.0,27.2,14.2,0000.0,0016.95,0004.81,0003.92
